COSMOS 1946 (GLONASS)

Satellite information

Favourite Embed

Satellite Type and Status

PAYLOADIN ORBIT

Key statistics

Satellite COSMOS 1946 (GLONASS) at a glance.

Uptime

13616

Days in orbit

Revolutions

≈ 2.1

Per day

Orbit

MEO

Medium Earth Orbit

Inclination

64.8

Latest

Satellite identification and parameters

Extended collection of information and parameters for COSMOS 1946 (GLONASS).

Object identification

Identified? True

Debris? False

Object name: COSMOS 1946 (GLONASS)

International designator: 1988-043A

Object number (NORAD): 19163

Object ID (CCSDS): 19163

Country: COMMONWEALTH OF INDEPENDENT STATES (CIS)

Current information (Y/N): Y

RCS size: MEDIUM

Orbital parameters

Period: 675.729 minutes

Inclination: 64.7984 deg

SMA: 25507.918 km

Apoapsis: 19141.486 km

Periapsis: 19118.079 km

RAAN: 83.6548 deg

Eccentricy: 0.00045882

Argument of periapsis: 94.6122 deg

Mean anomaly: 86.0006 deg

Mean motion: 2.13103338 rev/day

Mean motion (dot): -0.00000005 rev/day2

B* drag term: 0.0 1/REarth

Two-line elements (TLE)

Creation date: Aug. 27, 2025, 8:01 p.m.

Reference frame: TEME

Reference center: EARTH

Epoch: Aug. 27, 2025, 6:44 a.m. UTC

TLE line 0: 0 COSMOS 1946 (GLONASS)

TLE line 1: 1 19163U 88043A 25239.28124212 -.00000005 00000-0 00000-0 0 9992

TLE line 2: 2 19163 64.7984 83.6548 0004588 94.6122 86.0006 2.13103338289332

Live tracking on map

Real-time ground track for satellite COSMOS 1946 (GLONASS).

In-orbit conjunctions

A list of the most updated potential collisions computed for object COSMOS 1946 (GLONASS).

Target Orbit TCA Probability of collision Miss distance Type
SL-12 R/B(2) MEO 2024-11-24 15:48:33 TBA 3515.0 (m) ROCKET BODY

Associated space launch

GLONASS navigation satellites

COSMOS 1946 (GLONASS) was lifted into orbit during the mission ‘Proton | Uragan 26 to 28’, on board a Proton space rocket.

The launch took place on May 21, 1988, 5:57 p.m. from 200/39 (200L).

For more information about the launch, click the button.

Launch to space Proton | Uragan 26 to 28
Proton | Uragan 26 to 28

Agency: N/A

Status: Launch Successful

Launch date: May 21, 1988, 5:57 p.m. UTC

Rocket: Proton

Launch pad: 200/39 (200L)

Location: Baikonur Cosmodrome, Republic of Kazakhstan

...

Latest news about this satellite

There are no fresh news available about this satellite. Check back as we update our databases every day.


Newsletter sign-up

Weekly statistics, charts and insights to help you stay on top of the space industry.